Regional Weather Roundup
Issued by NWS

Home | Current Version | Previous Version | Graphics & Text | Print | Product List | Glossary On
Versions: 1 2 3 4 5 6 7 8 9 10 11 12 13 14 15 16 17 18 19 20 21 22 23 24 25 26 27 28 29 30 31 32 33 34 35 36 37 38 39 40 41 42 43 44 45 46 47 48 49 50
640
ASUS43 KDMX 270606
RWRIA

WEATHER ROUNDUP FOR IOWA
NATIONAL WEATHER SERVICE DES MOINES IA
100 AM CDT SAT MAY 27 2017

NOTE: "FAIR" INDICATES FEW OR NO CLOUDS BELOW 12,000 FEET WITH NO
SIGNIFICANT WEATHER AND/OR OBSTRUCTIONS TO VISIBILITY.

* - THESE STATIONS ARE NOT NWS STATIONS...THUS NOT UNDER NWS
QUALITY CONTROL.  THEY ALSO DO NOT REPORT WEATHER SUCH
AS PRECIPITATION OR FOG.

IAZ001>003-012>014-020>022-031>034-043>046-270700-
   NORTHWEST IOWA

CITY           SKY/WX    TMP DP  RH WIND       PRES   REMARKS
CARROLL *      CLEAR     61  46  59 NW8       29.88R
CHEROKEE *     CLEAR     55  45  69 NE3       29.89R
DENISON *      CLEAR     57  46  67 N5        29.90R
LE MARS *      CLOUDY    52  46  82 CALM      29.90S
ORANGE CITY *  CLEAR     57  46  67 NW5       29.90S
SHELDON *      CLEAR     52  43  71 CALM      29.89R
SIOUX CITY     CLOUDY    57  46  66 N5        29.89R
6HR MIN TEMP:  56; 6HR MAX TEMP:  75;

SPENCER        CLEAR     54  46  74 NW7       29.89R
6HR MIN TEMP:  52; 6HR MAX TEMP:  75;

STORM LAKE *   CLEAR     61  43  51 N6        29.89S
$$

IAZ055>058-069>071-079>083-090>094-270700-
   SOUTHWEST IOWA

CITY           SKY/WX    TMP DP  RH WIND       PRES   REMARKS
ATLANTIC *     CLOUDY    59  50  72 N5        29.88R
AUDUBON *      CLOUDY    55  50  82 CALM      29.89S
CLARINDA *     CLOUDY    63  55  77 NE5       29.88R
COUNCIL BLFS * CLOUDY    61  52  72 N7        29.88R
CRESTON *      CLOUDY    64  54  68 NE6       29.88R
HARLAN  *      CLEAR     59  48  67 N3        29.91R
LAMONI         CLOUDY    66  62  87 N3        29.85F
6HR MIN TEMP:  64; 6HR MAX TEMP:  80;

RED OAK *      CLOUDY    63  52  67 N5        29.87R
SHENANDOAH *   CLOUDY    64  55  72 CALM      29.87R
$$

IAZ047>049-059>061-072>074-084-270700-
   CENTRAL IOWA

CITY           SKY/WX    TMP DP  RH WIND       PRES   REMARKS
AMES           CLEAR     60  60 100 CALM      29.86S FOG
6HR MIN TEMP:  59; 6HR MAX TEMP:  78;

ANKENY *       PTCLDY    63  61  94 CALM      29.87S
BOONE *        CLEAR     63  63 100 N5        29.86F
CHARITON *     CLEAR     64  63  94 SE6       29.85F
DES MOINES     PTCLDY    66  62  87 E5        29.85S
6HR MIN TEMP:  66; 6HR MAX TEMP:  82;

GRINNELL*      CLEAR     59  57  92 SE6       29.88F
KNOXVILLE *    CLEAR     63  61  94 SE7       29.85F
MARSHALLTOWN   CLEAR     59  58  96 E3        29.86S
6HR MIN TEMP:  59; 6HR MAX TEMP:  72;

NEWTON *       CLEAR     59  57  94 SE7       29.85F
PELLA *        CLEAR     61  59  94 SE5       29.87F
PERRY *          N/A     64  47  53 N6        29.87S
$$

IAZ004>006-015-016-023>025-035-036-270700-
   NORTH CENTRAL IOWA

CITY           SKY/WX    TMP DP  RH WIND       PRES   REMARKS
ALGONA *       CLEAR     59  46  63 N5        29.88S
CLARION *      CLEAR     61  50  67 N3        29.88S
ESTHERVILLE    CLEAR     55  48  77 W5        29.87F
6HR MIN TEMP:  54; 6HR MAX TEMP:  74;

FORT DODGE *   CLEAR     54  46  76 CALM      29.87R
MASON CITY     CLEAR     57  50  77 NW7       29.89S
6HR MIN TEMP:  55; 6HR MAX TEMP:  75;

FOREST CITY *    N/A     52  36  54 CALM      29.88S
WEBSTER CITY * CLEAR     59  48  67 N6        29.86S
IOWA FALLS *     N/A     61  59  93 S5        29.88F
$$

IAZ007>011-017>019-026>030-037>042-050>054-066-270700-
   NORTHEAST IOWA

CITY           SKY/WX    TMP DP  RH WIND       PRES   REMARKS
CEDAR RAPIDS   FOG       55  55 100 S3        29.87S VSB<1/4
6HR MIN TEMP:  55; 6HR MAX TEMP:  67;

CHARLES CITY * CLEAR     59  59 100 SW3       29.89S
CLINTON *      CLOUDY    59  57  93 CALM      29.90R
DECORAH *      MOCLDY    57  57 100 S5        29.88R
DUBUQUE        CLEAR     55  53  93 CALM      29.88S
6HR MIN TEMP:  55; 6HR MAX TEMP:  64;

MONTICELLO *   FOG       54  54 100 CALM      29.88S VSB 1/4
OELWEIN *      CLEAR     57  57 100 S7        29.88S FOG
WATERLOO       CLEAR     55  53  93 CALM      29.87R FOG
6HR MIN TEMP:  54; 6HR MAX TEMP:  67;

$$

IAZ064-065-067-068-078-270700-
   EAST CENTRAL IOWA

CITY           SKY/WX    TMP DP  RH WIND       PRES   REMARKS
DAVENPORT      CLOUDY    60  57  89 E7        29.89R
6HR MIN TEMP:  60; 6HR MAX TEMP:  65;

IOWA CITY      FOG       56  55  97 CALM      29.89S VSB 1/2
6HR MIN TEMP:  56; 6HR MAX TEMP:  69;

MT. PLEASANT * CLEAR     59  59 100 CALM      29.88S FOG
MUSCATINE *    CLEAR     57  55  94 CALM      29.88S FOG
QUAD CITIES    CLOUDY    61  57  87 N5        29.88R
6HR MIN TEMP:  61; 6HR MAX TEMP:  67;

$$

IAZ062-063-075>077-085>089-095>099-270700-
   SOUTHEAST IOWA

CITY           SKY/WX    TMP DP  RH WIND       PRES   REMARKS
BURLINGTON     CLEAR     60  60 100 N5        29.87R
6HR MIN TEMP:  59; 6HR MAX TEMP:  72;

FAIRFIELD *    FOG       57  57 100 CALM      29.87S VSB 1/4
FORT MADISON * CLEAR     59  57  94 CALM      29.88S
KEOKUK *       CLEAR     59  59 100 CALM      29.87R
OSKALOOSA *      N/A     60  58  93 SE5       29.87F
CENTERVILLE *    N/A     61  61 100 CALM      29.87F
OTTUMWA        CLEAR     60  60 100 SE3       29.87S
6HR MIN TEMP:  59; 6HR MAX TEMP:  73;

WASHINGTON *   FOG       59  59 100 E3        29.89S VSB<1/4
$$

ABBREVIATIONS USED IN REMARKS
   TC - TEMPERATURES IN CELSIUS
  WCI - WIND CHILL INDEX
   HX - HEAT INDEX
  VSB - VISIBILITY
$$





USA.gov is the U.S. government's official web portal to all federal, state and local government web resources and services.